Back to catalog

AEROCUBE 8D

AliveSciencePO
NORAD 41852·PAYLOAD·🇺🇸 United States

Launched Nov 11, 2016 from Vandenberg Space Force Base

Loading…

Next Passes (next 24 hours)

TLE

FreshSource: Space-Track

Epoch: Sep 14, 2026, 11:02 UTC

1 41852U 16067E   26257.46005218  .00005767  00000-0  23100-3 0  9992
2 41852  98.0521 134.4301 0003457 159.7421 200.3953 15.25486117539673

Track AEROCUBE 8D in real time with AllMySat

Download on the App Store